Weather in Ozerna

Ukraine / Kyiv Region     49°38′13″N   30°08′05″E
temp.,
°C
wind,
m/s
gust,
m/s
humid.,
%
clouds,
%
prec.,
mm/h
press.,
hPa
HPBL,
m
7 march, sun
sun723:00−5w36830 0.0 1027134
02:00−5wsw48840 0.0 1026202
05:00−4wsw512840 0.0 1023319
08:00−3wsw714813 0.0 1021530
11:00+1wsw9157266 0.0 10181225
14:00+2w9157181 0.0 10161313
17:00+2w8157174 0.0 10141180
20:000w7157382 0.0 1014590
8 march, mon
mon823:000wsw7147795 0.0 1013819
02:00−1w6138383 0.0 1012774
05:00−1w6118598 0.0 1011798
08:00−1w6118598 0.0 1012839
11:00+1wnw7106668 0.1 10121304
14:00+1wnw7105474 0.1 10131683
17:000wnw5966100 0.1 10131090
20:00−2nw3972100 0.1 1016522
9 march, tue
tue923:00−3nw37680 0.0 1017363
02:00−3wnw36710 0.0 1018420
05:00−3wnw477264 0.0 1018940
08:00−3nw577081 0.1 1020954
11:00−1nw455993 0.1 10211177
14:000nw345596 0.1 10211285
17:00−1nnw2359100 0.1 10211078
20:00−2nne1166100 0.1 102380
10 march, wed
wed1023:00−3se3476100 0.0 1024330
02:00−3se358399 0.0 1024372
05:00−4se3581100 0.0 1023326
08:00−3se3576100 0.0 1024384
11:00−2sse3471100 0.0 1024602
14:00−1sse3364100 0.1 1023818
17:00−1sse336680 0.0 1023773
20:00−2sse347370 0.0 1025304
11 march, thu
thu1123:00−2s357696 0.0 1025326
02:00−2s367995 0.0 1026347
05:00−2ssw367785 0.0 1025293
08:00−2ssw477982 0.1 1025320
11:00+1ssw6766100 0.2 10251061
14:00+2ssw7959100 0.3 10231416
17:00+1s51062100 0.0 1021779
20:00+1s71468100 0.0 1020779